星链-4326 (STARLINK-4326 )

导读 | 豆包AI

STARLINK-4326是美国SpaceX星链星座中的一颗卫星,于2022年7月11日发射升空,属于星链低轨互联网星座组网卫星。星链项目旨在为全球提供高速低延迟卫星互联网服务,该卫星入轨后参与星座组网,服务覆盖、通信能力进一步扩充了星座整体服务规模,推进星链全球互联网覆盖的部署进程。

Basic Information
目录编号:
53081
目录名称:
STARLINK-4326
国际标识:
2022-077AQ
轨道中心:
EARTH
卫星名称:
星链-4326
卫星全名:
星链-4326 (STARLINK-4326 )
卫星状态:
在轨 (已飞行1389 天)
发射日期:
2022-07-11 UTC
国别 :
美国 (US)
星等 :
--
Orbit Information
数据来源 国际轨道数据 AOE轨道数据
星历时间 2026-04-30T19:38:11+0800
9小时前
查看轨道信息
2026-04-28T14:00:00+0800
2天前
查看轨道信息
半长轴 6927.771km 6927.631km
偏心率 0.0001865 0.0001663
轨道倾角 97.554° 97.566°
近地点辐角 92.566° 70.799°
升交点赤经 301.083° 298.895°
平近点角 267.579° 63.391°
近地点 548.341km 548.341km
远地点 550.927km 550.647km
周期 95.642分钟 95.639分钟
每日圈数 15.0561 15.056557
Detailed Information
固有亮度:
5
最大亮度:
2.5
卫星平台:
Starlink v1.5
覆盖范围:
全球
运营商:
太空探索技术公司
运营商所在国:
美国
制造商(研发单位):
太空探索技术公司
制造商所在国:
美国
使用方式:
暂无
Satellite Introduction
星链(Starlink)计划是由太空探索技术公司(SpaceX)提出的一个巨型低轨卫星互联网星座项目,计划在2019年至2024年间在太空搭建由约1.2万颗卫星组成的“星链”网络,其中1584颗将部署在地球上空550千米处的近地轨道,并从2020年开始工作。该卫星仍在工作。
2D Orbit Map
3D Orbit Map
Orbit Altitude Analysis Chart
Orbit Inclination Analysis Chart
Orbit Comprehensive Analysis Chart
View Comprehensive Chart